Powrót do katalogu

STARLINK-38103

AktywnyŁącznośćVLEO
NORAD 100022·PAYLOAD·🇺🇸 United States

Wystrzelony Jul 14, 2026 z Vandenberg Space Force Base

Loading…

Następne Przeloty (najbliższe 24 godziny)

TLE

ŚwieżeSource: Space-Track

Epoka: Sep 14, 2026, 15:13 UTC

1 A0022U 26160X   26257.63447466 -.00059920  00000-0 -44656-3 0  9996
2 A0022  70.0015 211.2936 0003759 252.6520 107.4267 15.72621058 11072

Śledź STARLINK-38103 w czasie rzeczywistym z AllMySat

Download on the App Store